Погода в Урицке

Погода в Урицке : погода сейчас, прогноз погоды и архив. Всё, что Вы хотите узнать о погоде в Урицке!

Поиск расширенной информации на нашем сайте:

Другие новости

Новости СМИ2

Главная страница сайта

Новости сайта

02.10.2013

Напоминаем, что на нашем новом сайте вы можете получить высокодетализированные прогнозы погоды по пунктам России, СНГ и мира (включающие важные для авиации метеовеличины, такие как направление и скорость ветра, видимость, явления погоды, количество и форма облачности, нижняя и верхняя граница облачности), а также ознакомиться с разнообразными материалами по авиационной метеорологии и подборкой полезных ссылок на эту тему.

Сайт Метеоцентр.Азия посвящён разработке технологий оптимизации авиаметеорологического обслуживания, включая проектирование и перспективное создание нескольких автоматизированных авиаметеорологических систем:
- система выпуска высокодетальных прогностических карт явлений погоды для нижнего воздушного пространства по России и ближнему зарубежью;
- система верификации прогнозов TAF (выпускаемых синоптиками официальных АМСГ РФ и ближнего зарубежья) и AUTOTAF (выпускаемых сайтом Метеоцентр.Азия) - выявление ошибок, онлайн-сопоставление с фактической погодой METAR, автоматическое внесение коррективов в прогнозы при резком отклонении фактической погоды от прогноза, подсчёт оправдываемости прогнозов по элементам и в целом;
- система обработки, анализа и отображения авиаметеорологической информации для применения провайдерами метеорологической информации.

Рекомендуем: Ролмастер изготовление Рольставней forec.ru.

Погода в Урицке - сегодня

Время (UTC), дата Ветер
(°,м/с) 
Видим.   Явления Облачность Т
(°С)
Тd
(°С)
f(%) Тe
(°С)
Pmin
(гПа)
dP
(гПа)
Po
(мм)
O2
(г/м3)
Тmin Tmax R s Состояние
почвы
18 21.03.17 050 (СВ) н/о    ясно 
-12.6 -16.9 70 -17  1035.1  -0.1  755  320    -3.5       
21 21.03.17 060 (СВ) н/о    ясно 
-13.8 -18.1 70 -17  1035.2  -0.1  755  322           
00 22.03.17 020 (С) н/о    ясно 
-14.9 -18.3 75 -17  1036  0.7  755  323           
06 22.03.17 080 (В) 20000 м    ясно 
-8.2 -13.4 66 -13  1036.7  0.5  756  315  -16.8         
09 22.03.17 100 (В) 20000 м    ясно 
-2.4 -8.4 63 -8  1035.3  -0.7  756  308           
12 22.03.17 030 (СВ) 20000 м    ясно 
-1.6 -8 62 -5  1035  -0.1  756  307           
15 22.03.17 070 (В) н/о    ясно 
-6.4 -11.9 65 -11  1034.9  -0.6  755  313    -1.3       
18 22.03.17 070 (В) н/о    ясно 
-6.6 -11.6 68 -12  1034.2  -0.7  755  313    -1.3       
21 22.03.17 090 (В) н/о    ясно 
-8.8 -13.2 70 -14  1034.1  -0.4  754  315           
00 23.03.17 030 (СВ) н/о    ясно 
-12 -16.4 70 -14  1033.4  -1.1  753  319           
03 23.03.17 070 (В) 20000 м    8/5 600 м верхняя 
[Sc|Ci sp]
-10.1 -14.5 70 -12  1032.6  -0.5  753  316        23  равномерный
сухой снег
100% 
06 23.03.17 110 (В) 20000 м    8/6 600 м верхняя 
[Sc|Ci sp]
-4.4 -10 65 -10  1031  -1  752  309  -12.2         
09 23.03.17 110 (В) 11  20000 м    10/10 600 м 
[Sc]
-1 -7.1 63 -6  1028.8  -1.8  751  304           
12 23.03.17 090 (В) 20000 м    6/6 600 м 
[Sc]
-0.8 -6.8 64 -5  1026.8  -1.9  750  304           
15 23.03.17 100 (В) н/о    4/1 600 м верхняя 
[Sc|Ci sp]
-3.2 -8.3 68 -8  1026.1  -1  749  306    -0.5       
18 23.03.17 100 (В) н/о    ясно 
-5.7 -10 72 -10  1024.5  -1.6  748  309    -0.5       
21 23.03.17 100 (В) н/о    ясно 
-6.4 -10.5 73 -10  1023.8  -2.2  746  309           
00 24.03.17 тихо ()   н/о    ясно 
-7.6 -11.6 73 -8  1020.8  -1.7  745  310           
06 24.03.17 180 (Ю) 20000 м    3/0 верхняя 
[Ci sp]
-4.2 -9.2 68 -5  1017.9  -1.2  743  305  -8         
09 24.03.17 260 (З) 20000 м    4/0 верхняя 
[Ci sp]
-1.2 -7.1 64 -4  1015.9  -1.7  742  301           
12 24.03.17 290 (З) 20000 м    8/6 600 м верхняя 
[Sc|Ci sp]
-0.8 -6.5 65 -4  1015.3  -0.5  741  300           
15 24.03.17 260 (З) н/о    3/3 600 м 
[Sc]
-3.6 -8.4 69 -7  1015.8  0.2  741  304    -0.6       
18 24.03.17 260 (З) н/о    ясно 
-5.4 -9.6 72 -9  1016.9  0.9  742  306    -0.6       
21 24.03.17 170 (Ю) н/о    ясно 
-6.5 -10.6 73 -10  1018.3  1.3  743  308           
00 25.03.17 230 (ЮЗ) н/о    10/10 600 м 
[Sc]
-3 -7.2 73 -7  1019.5  1.5  744  304           
Время (UTC), дата Ветер
(°,м/с) 
Видим.   Явления Облачность Т
(°С)
Тd
(°С)
f(%) Тe
(°С)
Pmin
(гПа)
dP
(гПа)
Po
(мм)
O2
(г/м3)
Тmin Tmax R s Состояние
почвы

Для получения пояснительной информации подведите курсор к названию столбца.

ПОГОДА в Урицке - архив

Всё, что Вы хотите узнать о погоде в Урицке - удобно и подробно!

Выберите нужную дату (начиная с 1 января 2015* года) и нажмите кнопку "Найти".
Будут отображены архивные сводки погоды по пункту Урицк, начиная с указанной даты.


Отображать данные в формате CSV (для использования в таблицах Excel)


Внимание! Наш архив погоды предназначен исключительно для личного некоммерческого использования в познавательных целях. Если Вам необходимы официальные справки о состоянии погоды (для производственных, юридических, коммерческих и т.п. целей), обращайтесь в органы Росгидромета.

*Примечание: данная дата относится к архиву по метеостанциям СССР (Россия, СНГ, Балтия).
Архив по метеостанциям Зарубежной Европы и Азии (кроме Китая) хранится 10 дней, по другим регионам земного шара (Китай, Африка, Америка, Австралия, Океания) - 1 день.

Урицк - район местоположения метеостанции


Название, широта, долгота, высота метеостанции:
Урицк 53.3°ш. 65.6°д. 216 м над ур. моря [Казахстан]

Дополнительная информация

В oтличие oт бoльшинства пoгoдных сайтoв мы публикуем пoдрoбную метеoинфoрмацию в детальнoм прoфессиoнальнoм фoрмате.

Характеристики температуры и влажнoсти вoздуха измеряются на высoте 2 м в тени вдали oт зданий и деревьев.
Скoрoсть ветра измеряется на высoте 10 м (на урoвне рoста челoвека скoрoсть ветра ниже в 1.5-2 раза). Если метеoстанция нахoдится в гoрoде или в лесу, тo скoрoсть ветра занижена на 2-4 м/с пo сравнению с oткрытым местoм. Скoрoсть ветра над акватoриями крупных рек и oзёр, а также на вершинах хoлмoв на 2-5 м/с выше, чем в oбычных услoвиях.
Атмoсфернoе давление в разных тoчках местнoсти мoжет значительнo oтличаться oт давления на метеoстанции, в зависимoсти oт услoвий рельефа (при пoдъёме на 10 м давление пoнижается примернo на 1 мм рт.ст.).